Location: Melque
(41.0517°N, 4.4694°W)
Time: 10:01:26
(UTC+00:00)

Meteor 2-20 - Pass Details

Date: 17 March 2026
Orbit: 938 x 958 km, 82.5° (Epoch: 20 April)

Event Time Altitude Azimuth Distance (km) Brightness Sun altitude
Rises 19:50:53 0° 330° (NNW) 3,646 8.2 -16.6°
Reaches altitude 10° 19:55:15 10° 301° (WNW) 2,691 8.0 -17.4°
Maximum altitude 19:57:20 12° 281° (W) 2,551 7.9 -17.7°
Drops below altitude 10° 19:59:25 10° 261° (W) 2,682 7.8 -18.1°
Sets 20:03:47 0° 231° (SW) 3,617 8.0 -18.9°
